Tracking 35036 objects as of 15-Aug-2026
HD Live streaming from Space Station
objects crossing your sky now

QIANFAN-207

Track QIANFAN-207 now!
10-day predictions
QIANFAN-207 is classified as:


NORAD ID: 69806
Int'l Code: 2026-153G
Launch date: July 4, 2026
Source: People's Republic of China (PRC)
Launch site: Taiyaun Space Center, China (TSC)
Your satellite tracking list
Your tracking list is empty




NASA's NSSDC Master Catalog

Two Line Element Set (TLE):
1 69806U 26153G   26227.59719748  .00000197  00000-0  10138-3 0  9998
2 69806  88.9961 355.4785 0010191  83.3551 276.8794 14.11279651  5999
Source of the keplerian elements: AFSPC